SCP
0 0 0 0 0 0 0 0 0 0 0 0 0 0 0 0 0 0 0 0 0 0 0 0 0 0 0 0 0 0 0 0 0 0 0 0 0 0 0 0 0 0 0 0 0 0 0 0 0 0 0 0 0 0
0 0 0 0 0 0 0 0 0 0 0 0 0 0 0 0 0 0 0 0 0 0 0 0 0 0 0 0 0 0 0 0 0 0 0 0 0 0 0 0 0 0 0 0 0 0 0 0 0 0 0 0 0 0
0 0 0 0 0 0 0 0 0 0 0 0 0 0 0 0 0 0 0 0 0 0 0 0 0 0 0 0 0 0 0 0 0 0 0 0 0 0 0 0 0 0 0 0 0 0 0 0 0 0 0 0 0 0
0 0 0 0 0 0 0 0 0 0 0 0 0 0 0 0 0 0 0 0 0 0 0 0 0 0 0 0 0 0 0 0 0 0 0 0 0 0 0 0 0 0 0 0 0 0 0 0 0 0 0 0 0 0
0 0 0 0 0 0 0 0 0 0 0 0 0 0 0 0 0 0 0 0 0 0 0 0 0 0 0 0 0 0 0 0 0 0 0 0 0 0 0 0 0 0 0 0 0 0 0 0 0 0 0 0 0 0
0 0 0 0 0 0 0 0 0 0 0 0 0 0 0 0 0 0 0 0 0 0 0 0 0 0 0 0 0 0 0 0 0 0 0 0 0 0 0 0 0 0 0 0 0 0 0 0 0 0 0 0 0 0
0 0 0 0 0 0 0 0 0 0 0 0 0 0 0 0 0 0 0 0 0 0 0 0 0 0 0 0 0 0 0 0 0 0 0 0 0 0 0 0 0 0 0 0 0 0 0 0 0 0 0 0 0 0
0 0 0 0 0 0 0 0 0 0 0 0 0 0 0 0 0 0 -0 -0 0 0 0 0 0 0 0 0 0 0 0 0 0 0 0 0 0 0 0 0 0 0 0 0 0 0 0 0 0 0 0 0 0 0
0 0 0 0 0 0 0 0 0 0 0 0 0 0 0 0 0 0 0 0 0 0 0 0 0 0 0 0 0 0 0 0 0 0 0 0 0 0 0 0 0 0 0 0 0 0 0 0 0 0 0 0 0 0
0 0 0 0 0 0 0 0 0 0 0 0 0 0 0 0 0 0 0 0 0 0 0 0 0 0 0 0 0 0 0 0 0 0 0 0 0 0 0 0 0 0 0 0 0 0 0 0 0 0 0 0 0 0
0 0 0 0 0 0 0 0 0 0 0 0 0 0 0 0 0 0 0 0 0 0 0 0 0 0 0 0 0 0 0 0 0 0 0 0 0 0 0 0 0 0 0 0 0 0 0 -0 0 0 0 0 0 0
0 0 0 0 0 0 -0 0 0 0 0 0 0 0 0 -0 0 0 0 0 0 0 0 0 0 0 0 0 0 0 0 0 0 0 0 0 0 0 0 0 0 0 0 0 0 0 0 0 0 0 0 0 0 0
0 0 -0 -0 -0 -0 -0 0 0 0 0 0 0 0 0 0 0 0 0 0 0 0 -0 0 0 0 0 0 0 0 0 0 0 0 0 0 0 0 0 0 0 0 0 0 0 0 0 0 0 0 0 0 0 0
0 0 0 0 0 0 0 0 0 0 0 0 0 0 0 0 0 0 0 0 0 -0 0 0 0 0 0 0 0 0 0 0 0 -0 0 0 0 0 0 0 0 0 0 0 0 0 0 0 0 0 0 0 0 0
0 0 -0 0 0 0 0 0 -0 0 0 0 0 0 0 0 0 0 -0 -0 -0 -0 0 0 0 0 0 0 0 0 0 0 -0 -0 0 0 0 0 0 0 0 0 0 0 0 0 0 0 0 0 0 0 0 0
0 0 0 -0 0 0 -0 -0 0 0 0 0 0 0 0 0 0 -0 -0 -0 0 -0 0 -0 0 0 0 0 0 0 0 0 -0 -0 -0 -0 -0 0 -0 0 0 0 0 0 0 0 0 0 0 0 0 0 0 0
-0 0 -0 -0 -0 -0 -0 0 0 0 0 0 0 0 0 0 0 -0 -0 -0 0 -0 -0 -0 0 0 0 0 0 0 0 -0 -0 -0 -0 -0 -0 0 -0 0 0 0 0 0 0 0 0 0 0 0 0 0 0 0
-0 -0 -0 -0 -0 0 0 0 0 0 -0 -0 0 0 0 0 0 -0 -0 0 0 0 -0 0 0 0 0 0 0 0 0 0 0 -0 0 -0 0 0 0 0 0 0 0 0 0 0 0 0 0 0 0 0 0 0
-0 0 -0 -0 0 0 0 0 -0 0 0 -0 0 0 0 0 0 -0 -0 -0 0 0 0 0 0 0 -0 -0 -0 -0 0 0 0 0 0 -0 -0 -0 0 0 0 0 0 0 0 0 0 0 0 0 0 0 0 0
-0 -0 0 0 0 0 0 0 -0 -0 0 -0 0 0 -0 0 0 -0 0 -0 0 0 0 0 0 -0 -0 -0 -0 -0 0 0 0 0 -0 -0 -0 0 0 0 0 0 0 0 0 0 0 0 0 0 0 0 0 0
0 0 0 0 0 0 0 0 0 0 0 0 0 0 0 0 0 0 0 -0 0 0 0 0 0 -0 -0 -0 -0 -0 -0 0 0 0 0 0 0 0 0 0 0 0 0 0 0 0 0 0 0 0 0 0 0 0
0 0 0 0 -0 0 0 0 0 0 0 0 0 -0 -0 0 0 0 0 0 0 0 0 0 0 0 -0 -0 0 -0 0 0 0 0 0 0 0 0 0 0 0 0 0 0 0 0 0 0 0 0 0 0 0 0
0 0 0 0 0 0 0 0 0 0 0 0 0 0 0 0 0 0 0 0 0 0 0 0 0 -0 -0 0 -0 -0 0 0 0 0 0 0 0 0 0 0 0 0 0 0 0 0 0 0 0 0 0 0 0 0
0 0 0 0 0 0 0 0 0 0 0 0 0 0 0 0 0 0 0 0 0 0 0 -0 0 0 0 -0 -0 0 0 0 0 0 0 0 0 0 0 0 0 0 0 0 0 0 0 0 0 0 0 0 0 0
0 0 0 0 0 0 0 0 0 0 0 0 0 0 0 0 0 0 0 0 0 0 0 0 0 0 0 0 0 0 0 -0 0 0 0 0 0 0 0 0 0 0 0 0 0 0 0 0 0 0 0 0 0 0
0 0 0 0 0 0 0 0 0 0 0 0 0 0 0 0 0 0 0 0 0 -0 -0 -0 -0 0 0 0 0 0 0 -0 0 -0 0 0 0 0 0 0 0 0 0 0 0 0 0 0 0 0 0 0 0 0
0 0 0 0 0 0 0 0 0 0 0 0 0 0 0 0 0 -0 -0 0 -0 -0 -0 -0 0 0 0 0 -0 0 0 -0 -0 0 0 0 0 0 -0 -0 0 0 0 0 0 0 0 0 0 0 0 0 0 0
0 0 0 0 0 0 0 0 0 0 0 0 0 0 0 0 0 -0 0 -0 -0 0 0 0 0 -0 0 -0 0 -0 0 0 0 -0 -0 0 0 0 0 0 0 -0 0 0 0 0 0 0 0 0 0 0 0 0
0 0 0 0 0 0 0 0 0 0 0 0 0 0 0 0 -0 0 -0 -0 0 0 0 0 0 0 0 0 0 0 0 0 0 0 0 0 0 0 -0 0 0 0 0 0 0 0 0 0 0 0 0 0 0 0
0 0 0 0 0 0 0 -0 -0 -0 -0 0 -0 0 0 0 0 -0 -0 0 0 0 0 -0 0 0 0 0 0 0 0 0 0 0 0 -0 -0 -0 0 -0 -0 -0 -0 -0 -0 -0 -0 -0 -0 0 0 0 0 -0
-0 0 0 0 0 0 0 0 0 -0 -0 0 0 -0 0 -0 -0 0 -0 -0 0 -0 -0 0 0 0 0 0 0 0 0 0 -0 0 -0 -0 -0 -0 -0 -0 -0 -0 -0 -0 -0 -0 -0 -0 -0 -0 -0 -0 0 0
0 0 0 0 0 0 0 0 0 0 0 0 0 0 0 0 0 0 -0 -0 -0 0 0 0 0 0 0 0 0 0 0 0 0 0 -0 -0 -0 -0 -0 -0 -0 -0 -0 -0 -0 -0 -0 -0 -0 -0 -0 -0 0 0
0 0 0 0 0 0 0 0 0 0 0 0 0 0 0 0 0 0 0 -0 -0 -0 -0 -0 0 0 0 0 0 0 0 0 0 0 -0 -0 -0 -0 -0 -0 -0 -0 -0 -0 -0 -0 -0 -0 -0 -0 -0 -0 -0 -0
Wind_Speed_500mb
41 40 39 40 41 38 37 37 36 37 41 39 34 31 29 26 23 18 7 10 8 14 46 55 47 35 20 8 4 19 10 7 7 6 6 7 6 9 8 9 15 14 12 8 6 5 12 13 13 18 15 36 49 48
40 40 38 37 38 37 37 36 36 37 37 35 33 30 28 26 21 23 20 12 17 26 31 34 36 36 44 44 37 13 6 11 6 3 1 2 4 3 11 5 2 5 14 10 14 12 13 23 17 27 48 56 45 39
43 41 40 39 38 36 36 37 36 35 32 34 32 31 27 26 22 22 29 15 19 24 52 37 41 25 29 44 40 18 9 2 9 18 7 6 4 8 7 7 6 7 10 8 8 2 19 38 45 42 38 38 37 28
46 46 45 43 43 39 37 36 35 34 31 30 30 29 26 25 26 25 30 10 12 15 12 18 18 34 14 31 34 54 54 41 31 28 7 4 5 10 9 8 9 11 12 10 1 7 21 38 47 45 39 40 40 37
48 48 46 44 41 40 37 35 35 31 29 29 29 27 26 24 29 29 28 21 18 15 11 35 69 35 28 35 35 40 53 55 41 7 5 7 8 3 3 5 2 13 12 9 11 42 30 48 48 47 53 54 49 46
54 52 50 47 43 42 40 36 36 33 31 29 27 23 23 24 26 19 5 8 29 24 11 8 22 37 21 28 27 45 49 50 34 12 10 12 12 1 5 5 8 7 21 28 17 37 52 45 57 54 55 53 45 32
54 52 52 51 49 44 41 37 33 30 28 27 27 25 26 25 25 20 10 18 21 18 9 15 15 17 22 24 17 43 42 44 34 22 14 12 7 3 7 9 11 16 8 34 36 35 33 68 63 62 53 47 36 25
59 58 55 51 48 45 40 34 29 26 25 24 26 25 26 26 32 42 36 23 3 9 9 6 9 16 5 14 16 35 27 29 24 26 12 15 12 7 7 22 28 16 28 38 43 30 42 60 62 58 52 50 41 37
61 58 56 52 47 45 38 29 24 23 21 23 21 20 25 27 21 18 4 25 22 20 7 7 5 8 29 6 19 24 29 4 16 12 14 6 6 13 14 35 33 28 39 36 33 32 47 63 64 61 57 52 44 48
56 55 52 49 45 44 37 31 24 20 18 15 15 6 9 9 20 7 10 10 14 15 12 9 10 8 24 17 9 4 5 4 6 13 20 14 21 27 29 36 33 33 32 48 61 60 65 66 67 68 59 51 43 40
55 49 46 42 40 40 35 32 23 18 17 11 7 10 15 19 16 12 12 15 16 7 15 17 39 16 20 4 5 9 3 3 5 8 12 8 10 31 50 48 46 45 49 53 59 56 58 51 70 65 53 44 38 34
41 34 32 31 34 37 34 31 25 29 13 10 9 21 21 7 13 8 7 11 9 9 13 15 24 36 18 19 2 5 1 3 11 22 6 12 6 48 64 68 71 60 52 50 68 62 60 59 59 55 49 38 35 34
27 19 18 25 31 32 33 29 30 21 21 13 6 7 9 10 9 9 9 6 7 12 16 22 8 14 22 20 6 8 8 9 7 3 8 7 36 35 60 60 66 63 54 60 66 58 57 58 53 49 43 38 38 42
12 4 8 20 24 26 24 26 25 27 15 8 6 8 7 7 7 3 5 6 22 28 35 22 16 16 15 8 7 6 8 3 4 6 9 5 34 23 44 56 69 60 69 72 69 62 60 52 57 52 44 44 44 43
14 4 6 18 21 22 23 26 27 27 10 6 7 7 8 15 10 20 20 17 22 35 29 24 12 10 2 6 6 5 5 8 9 8 5 24 54 47 43 37 62 67 79 77 71 66 58 55 58 56 51 44 38 35
22 22 27 22 21 24 25 23 23 18 4 7 11 7 23 18 13 10 17 24 27 32 35 4 4 5 8 6 7 11 5 10 8 6 18 23 35 47 39 33 61 76 87 78 73 67 61 62 61 55 45 35 31 27
10 18 17 16 20 19 22 17 14 9 7 6 12 19 38 42 34 18 25 29 43 27 3 6 7 7 4 5 5 7 4 6 15 14 14 18 29 40 27 32 73 85 84 80 71 71 69 62 52 45 41 36 26 17
22 17 14 17 19 21 22 10 6 7 10 19 14 33 31 34 36 21 20 38 33 16 3 5 13 6 2 2 6 9 23 39 25 24 24 7 22 24 12 36 89 82 79 77 76 69 60 51 42 37 32 28 22 26
12 13 13 15 18 5 8 6 8 7 17 23 32 43 44 47 15 13 38 35 26 16 7 6 6 2 2 11 7 30 44 33 24 18 14 13 17 27 18 49 81 82 84 75 65 55 45 34 30 32 26 21 29 36
12 13 15 15 12 3 4 6 9 10 10 9 25 20 7 7 28 31 18 12 14 6 4 5 6 16 13 5 3 24 25 18 17 10 8 18 26 21 23 61 85 81 73 64 53 47 41 36 32 27 19 18 34 38
7 10 12 9 5 8 7 5 9 11 15 11 22 18 10 13 9 9 10 10 4 5 6 14 18 16 15 8 1 3 12 19 23 26 14 10 31 41 42 67 73 68 64 56 50 43 37 35 35 31 24 17 25 34
8 4 2 4 6 6 9 11 12 15 12 17 18 12 9 5 9 7 4 6 6 10 10 5 10 11 11 4 10 21 22 16 19 19 15 10 30 58 76 72 66 60 52 46 43 40 34 30 31 33 27 25 26 33
5 5 7 8 6 7 10 9 8 7 5 9 15 6 4 4 5 5 3 4 8 7 6 5 1 6 9 13 15 7 11 10 16 4 24 43 50 58 55 51 48 51 47 39 33 33 34 35 37 35 34 35 32 34
8 6 6 6 10 7 8 7 8 7 7 6 4 5 3 4 4 1 1 4 12 11 9 13 10 8 9 22 23 14 12 7 12 25 19 40 49 44 39 37 35 37 34 41 36 33 36 40 42 43 40 35 32 37
7 7 7 9 9 9 7 4 4 4 5 5 3 3 4 3 1 2 3 12 27 21 13 11 14 12 17 19 14 25 26 20 20 20 22 31 39 34 31 35 43 41 37 32 25 25 29 30 31 35 45 39 40 43
5 6 7 8 5 5 6 1 6 7 5 3 2 3 2 3 4 6 5 5 14 14 14 15 17 21 25 13 11 18 27 41 35 31 31 22 30 27 43 38 32 23 11 8 12 19 22 23 24 26 31 34 45 46
5 8 5 11 15 24 10 11 16 5 6 8 5 6 4 5 8 2 3 7 9 9 19 19 22 21 24 6 22 15 29 42 35 24 34 28 34 28 17 20 23 18 17 15 14 13 21 26 25 22 32 36 42 49
10 7 2 25 15 11 4 6 6 9 8 13 11 8 5 3 3 4 8 13 5 13 18 20 26 34 15 23 21 26 33 34 35 27 19 16 29 29 22 22 21 23 23 16 14 13 13 26 26 33 31 35 39 41
10 9 9 15 14 8 6 5 10 7 5 5 4 5 6 8 3 10 7 7 4 9 14 21 31 24 14 23 36 43 36 26 18 39 45 46 42 35 26 23 24 23 23 22 19 16 17 28 36 34 35 33 38 40
9 15 8 8 3 7 3 2 3 10 4 11 11 10 10 15 20 23 8 13 7 7 14 28 39 12 18 24 28 23 16 21 48 34 41 50 42 35 26 24 22 24 28 26 28 31 28 27 32 33 37 38 38 45
17 14 8 7 8 2 6 8 10 9 2 5 7 10 13 11 18 27 23 17 9 14 18 24 26 5 13 16 22 26 36 45 28 25 27 30 27 30 26 24 22 24 26 29 29 30 26 20 32 42 49 53 59 59
16 10 12 7 10 22 11 8 9 5 6 9 9 14 12 9 6 13 17 10 19 13 14 26 18 17 16 16 28 37 39 41 32 31 31 28 32 35 31 21 14 15 20 23 28 31 25 27 39 52 58 40 54 48
16 12 10 9 6 5 6 9 6 8 4 3 3 4 4 4 5 13 19 17 13 16 44 33 21 36 25 26 32 31 46 52 43 37 34 30 32 34 20 18 14 9 19 34 38 36 36 39 42 55 59 57 64 71
Wind_Direction_500mb
313 313 312 310 308 306 305 306 308 310 315 318 319 321 324 327 321 328 253 234 344 277 273 268 270 284 296 298 336 319 352 352 43 70 135 215 166 220 139 190 174 162 147 193 99 117 266 236 151 150 169 143 147 153
310 310 312 309 308 307 306 304 306 309 310 313 312 315 316 318 313 303 296 278 276 267 259 274 269 257 258 259 274 289 279 297 350 72 259 121 188 93 157 215 7 121 173 181 165 209 227 193 163 149 157 154 154 153
305 306 306 306 305 301 300 301 303 305 306 309 308 308 305 310 309 290 292 328 318 301 295 272 271 288 260 243 241 226 260 89 56 18 301 261 214 128 148 223 142 8 151 132 85 279 150 135 135 148 162 162 164 178
299 298 299 301 302 300 292 295 298 299 301 306 306 307 304 302 304 290 277 281 276 294 275 288 284 280 231 229 243 233 243 261 297 317 281 247 227 186 195 188 143 190 127 158 243 95 144 160 162 165 169 167 163 163
296 295 294 295 296 296 296 287 289 289 293 303 306 302 303 300 303 293 278 273 227 244 294 295 304 288 246 241 232 237 233 246 259 241 259 236 264 107 10 73 155 180 171 156 216 181 179 192 177 178 169 167 168 165
293 289 286 285 287 288 292 285 281 279 284 291 298 292 294 294 304 309 292 185 191 231 263 293 304 294 259 227 254 218 222 223 223 199 229 251 251 204 121 183 251 209 217 231 196 184 202 189 179 183 177 172 174 178
290 288 286 279 277 279 283 285 275 274 275 282 282 286 288 286 282 257 227 163 191 205 240 292 284 277 306 236 223 202 200 210 218 220 225 259 297 232 148 172 190 101 128 216 217 186 151 168 176 179 177 172 173 171
294 291 284 277 269 267 273 278 269 269 270 273 280 285 288 283 273 270 239 201 270 266 248 270 271 295 298 194 190 200 193 211 216 217 239 208 248 217 224 213 200 163 153 155 160 171 178 179 172 169 174 173 174 173
291 284 278 271 265 256 259 259 262 259 266 274 280 289 287 263 264 298 197 201 219 225 250 260 269 269 348 330 195 186 198 140 225 196 205 217 222 221 206 180 191 195 175 175 176 173 165 170 168 171 177 178 180 174
291 285 275 263 258 248 245 242 252 251 258 266 280 262 252 233 306 247 167 178 181 220 235 255 273 274 337 340 18 135 99 231 203 222 201 221 238 239 224 197 222 226 210 185 158 152 163 167 173 176 184 191 195 189
296 279 269 253 245 236 233 229 236 228 227 230 227 238 261 310 171 210 201 185 191 228 218 230 229 244 266 306 259 38 78 275 267 253 171 230 231 218 226 223 217 218 225 207 208 201 200 197 180 178 186 193 199 199
301 284 256 235 231 222 221 214 212 211 203 198 257 282 282 231 214 217 224 170 182 220 217 204 224 212 231 226 157 149 10 252 244 347 257 233 239 210 218 222 229 231 226 213 205 194 188 189 187 186 189 196 207 209
312 279 236 222 212 211 208 201 207 207 208 238 262 263 209 230 243 198 194 216 194 215 213 207 199 183 206 197 166 174 211 239 297 248 261 242 203 222 220 228 225 224 205 197 187 186 188 188 189 192 193 198 205 209
334 354 209 186 193 195 184 188 183 180 179 220 238 269 203 229 247 75 330 309 290 315 319 255 205 211 174 152 173 187 218 105 247 211 249 320 355 277 228 229 224 203 188 183 182 180 179 181 188 193 198 198 202 196
340 170 178 174 151 161 169 166 173 176 179 229 239 246 240 242 339 295 335 325 328 340 334 315 255 162 231 150 191 137 153 239 226 243 245 332 336 328 294 260 224 205 187 177 174 172 176 182 190 187 192 196 196 193
69 103 121 136 153 154 154 159 165 170 224 232 238 270 279 299 322 266 357 348 351 326 336 239 289 117 206 188 144 204 205 219 230 220 270 320 329 332 307 248 221 199 177 173 173 178 180 177 174 179 180 188 188 194
48 112 126 136 145 158 159 157 164 202 238 246 250 268 271 278 286 321 353 338 335 320 265 98 247 176 296 223 215 204 247 305 334 325 303 328 325 332 340 199 187 175 170 168 172 169 165 164 169 173 174 175 179 191
113 128 139 155 152 154 165 163 215 236 243 242 247 268 277 285 286 311 332 340 323 307 215 285 313 26 29 26 359 5 336 333 320 305 307 280 305 327 18 167 166 168 163 161 160 157 158 163 171 173 171 172 175 168
95 133 143 150 153 129 188 221 231 255 247 257 261 274 280 289 255 276 309 301 293 281 318 261 253 204 124 174 210 11 312 305 310 306 310 198 353 299 188 159 152 157 155 156 157 161 167 174 179 173 173 188 177 174
118 135 156 158 173 275 248 231 222 254 261 267 286 287 318 254 300 306 310 300 313 309 226 251 232 191 202 176 134 348 291 330 345 339 18 194 177 156 148 154 152 152 152 154 156 157 159 164 169 170 169 169 180 182
102 136 154 184 262 266 264 276 250 246 280 267 281 288 237 297 305 301 294 303 271 236 250 255 269 235 203 167 216 259 314 321 333 337 325 135 169 139 158 151 147 149 149 152 155 159 166 174 175 184 178 154 182 186
360 200 237 236 257 257 264 245 248 287 280 265 289 214 222 255 280 284 181 195 235 243 246 303 193 210 167 65 323 312 313 327 337 354 45 133 168 157 154 154 147 144 147 151 154 161 174 182 189 186 173 153 166 174
344 223 254 240 254 244 261 249 248 244 250 280 313 299 225 243 264 197 241 193 273 311 246 148 77 61 39 6 347 331 325 317 345 91 116 124 134 136 137 140 140 141 145 154 165 177 185 187 180 176 169 161 165 172
302 264 251 240 218 261 268 247 240 267 273 263 247 271 280 254 307 22 272 10 337 2 107 43 59 42 24 18 40 45 15 322 312 155 111 141 137 136 138 141 149 156 166 168 166 165 174 176 179 183 184 186 191 184
276 250 246 258 226 233 222 232 236 244 247 248 282 309 309 284 15 227 102 359 44 51 51 33 112 26 360 16 82 55 87 93 116 124 112 140 139 138 138 145 147 152 159 159 169 186 185 185 188 197 201 200 198 191
270 268 217 286 301 225 299 225 211 226 229 230 306 350 26 25 358 46 44 46 84 51 19 9 12 4 355 341 154 103 138 120 132 143 108 130 156 157 150 148 150 147 151 146 152 164 169 181 187 184 188 189 186 185
271 270 289 297 290 296 319 324 319 350 346 10 337 339 28 25 38 31 158 134 120 35 1 4 360 347 348 222 172 159 162 165 159 130 141 134 165 162 166 177 166 150 148 143 143 169 194 189 190 193 183 182 182 188
254 291 283 315 318 328 304 299 352 15 333 341 339 7 53 43 288 355 71 83 83 7 345 337 345 345 344 176 173 147 143 156 167 175 198 204 189 181 146 134 127 126 132 140 153 182 195 178 171 162 161 165 170 173
255 265 256 288 282 279 260 211 146 246 272 329 11 59 310 337 308 340 349 8 4 349 336 341 346 355 113 164 162 146 143 133 136 150 150 148 154 153 153 138 132 144 163 157 143 125 123 169 168 156 155 155 150 157
290 325 244 224 258 282 111 56 332 345 333 38 31 24 13 40 7 1 284 327 337 304 351 357 350 49 113 148 157 159 129 144 159 154 149 157 156 153 154 152 164 180 179 173 166 147 140 150 159 155 162 161 159 153
297 310 288 268 236 280 25 358 357 337 298 40 15 11 10 3 354 50 37 36 21 353 344 359 6 137 132 131 140 151 139 156 147 149 147 145 149 155 157 159 172 181 184 185 182 169 158 153 167 167 164 155 152 140
286 287 342 323 340 352 351 5 336 1 51 38 17 356 20 44 24 35 40 27 3 331 339 333 321 207 148 126 134 133 145 149 159 160 148 137 156 171 166 162 153 141 158 173 182 180 168 158 158 164 163 177 168 153
303 283 286 287 301 304 301 341 3 345 18 0 331 58 96 108 110 39 32 17 28 38 12 349 175 177 157 135 129 136 149 148 142 146 142 151 170 168 140 110 114 132 142 137 140 150 153 152 152 153 153 152 148 148
Wind_Speed_850mb
41 40 39 40 41 38 37 37 36 37 41 39 34 31 29 26 23 18 7 10 8 14 46 55 47 35 20 8 4 19 10 7 7 6 6 7 6 9 8 9 15 14 12 8 6 5 12 13 13 18 15 36 49 48
40 40 38 37 38 37 37 36 36 37 37 35 33 30 28 26 21 23 20 12 17 26 31 34 36 36 44 44 37 13 6 11 6 3 1 2 4 3 11 5 2 5 14 10 14 12 13 23 17 27 48 56 45 39
43 41 40 39 38 36 36 37 36 35 32 34 32 31 27 26 22 22 29 15 19 24 52 37 41 25 29 44 40 18 9 2 9 18 7 6 4 8 7 7 6 7 10 8 8 2 19 38 45 42 38 38 37 28
46 46 45 43 43 39 37 36 35 34 31 30 30 29 26 25 26 25 30 10 12 15 12 18 18 34 14 31 34 54 54 41 31 28 7 4 5 10 9 8 9 11 12 10 1 7 21 38 47 45 39 40 40 37
48 48 46 44 41 40 37 35 35 31 29 29 29 27 26 24 29 29 28 21 18 15 11 35 69 35 28 35 35 40 53 55 41 7 5 7 8 3 3 5 2 13 12 9 11 42 30 48 48 47 53 54 49 46
54 52 50 47 43 42 40 36 36 33 31 29 27 23 23 24 26 19 5 8 29 24 11 8 22 37 21 28 27 45 49 50 34 12 10 12 12 1 5 5 8 7 21 28 17 37 52 45 57 54 55 53 45 32
54 52 52 51 49 44 41 37 33 30 28 27 27 25 26 25 25 20 10 18 21 18 9 15 15 17 22 24 17 43 42 44 34 22 14 12 7 3 7 9 11 16 8 34 36 35 33 68 63 62 53 47 36 25
59 58 55 51 48 45 40 34 29 26 25 24 26 25 26 26 32 42 36 23 3 9 9 6 9 16 5 14 16 35 27 29 24 26 12 15 12 7 7 22 28 16 28 38 43 30 42 60 62 58 52 50 41 37
61 58 56 52 47 45 38 29 24 23 21 23 21 20 25 27 21 18 4 25 22 20 7 7 5 8 29 6 19 24 29 4 16 12 14 6 6 13 14 35 33 28 39 36 33 32 47 63 64 61 57 52 44 48
56 55 52 49 45 44 37 31 24 20 18 15 15 6 9 9 20 7 10 10 14 15 12 9 10 8 24 17 9 4 5 4 6 13 20 14 21 27 29 36 33 33 32 48 61 60 65 66 67 68 59 51 43 40
55 49 46 42 40 40 35 32 23 18 17 11 7 10 15 19 16 12 12 15 16 7 15 17 39 16 20 4 5 9 3 3 5 8 12 8 10 31 50 48 46 45 49 53 59 56 58 51 70 65 53 44 38 34
41 34 32 31 34 37 34 31 25 29 13 10 9 21 21 7 13 8 7 11 9 9 13 15 24 36 18 19 2 5 1 3 11 22 6 12 6 48 64 68 71 60 52 50 68 62 60 59 59 55 49 38 35 34
27 19 18 25 31 32 33 29 30 21 21 13 6 7 9 10 9 9 9 6 7 12 16 22 8 14 22 20 6 8 8 9 7 3 8 7 36 35 60 60 66 63 54 60 66 58 57 58 53 49 43 38 38 42
12 4 8 20 24 26 24 26 25 27 15 8 6 8 7 7 7 3 5 6 22 28 35 22 16 16 15 8 7 6 8 3 4 6 9 5 34 23 44 56 69 60 69 72 69 62 60 52 57 52 44 44 44 43
14 4 6 18 21 22 23 26 27 27 10 6 7 7 8 15 10 20 20 17 22 35 29 24 12 10 2 6 6 5 5 8 9 8 5 24 54 47 43 37 62 67 79 77 71 66 58 55 58 56 51 44 38 35
22 22 27 22 21 24 25 23 23 18 4 7 11 7 23 18 13 10 17 24 27 32 35 4 4 5 8 6 7 11 5 10 8 6 18 23 35 47 39 33 61 76 87 78 73 67 61 62 61 55 45 35 31 27
10 18 17 16 20 19 22 17 14 9 7 6 12 19 38 42 34 18 25 29 43 27 3 6 7 7 4 5 5 7 4 6 15 14 14 18 29 40 27 32 73 85 84 80 71 71 69 62 52 45 41 36 26 17
22 17 14 17 19 21 22 10 6 7 10 19 14 33 31 34 36 21 20 38 33 16 3 5 13 6 2 2 6 9 23 39 25 24 24 7 22 24 12 36 89 82 79 77 76 69 60 51 42 37 32 28 22 26
12 13 13 15 18 5 8 6 8 7 17 23 32 43 44 47 15 13 38 35 26 16 7 6 6 2 2 11 7 30 44 33 24 18 14 13 17 27 18 49 81 82 84 75 65 55 45 34 30 32 26 21 29 36
12 13 15 15 12 3 4 6 9 10 10 9 25 20 7 7 28 31 18 12 14 6 4 5 6 16 13 5 3 24 25 18 17 10 8 18 26 21 23 61 85 81 73 64 53 47 41 36 32 27 19 18 34 38
7 10 12 9 5 8 7 5 9 11 15 11 22 18 10 13 9 9 10 10 4 5 6 14 18 16 15 8 1 3 12 19 23 26 14 10 31 41 42 67 73 68 64 56 50 43 37 35 35 31 24 17 25 34
8 4 2 4 6 6 9 11 12 15 12 17 18 12 9 5 9 7 4 6 6 10 10 5 10 11 11 4 10 21 22 16 19 19 15 10 30 58 76 72 66 60 52 46 43 40 34 30 31 33 27 25 26 33
5 5 7 8 6 7 10 9 8 7 5 9 15 6 4 4 5 5 3 4 8 7 6 5 1 6 9 13 15 7 11 10 16 4 24 43 50 58 55 51 48 51 47 39 33 33 34 35 37 35 34 35 32 34
8 6 6 6 10 7 8 7 8 7 7 6 4 5 3 4 4 1 1 4 12 11 9 13 10 8 9 22 23 14 12 7 12 25 19 40 49 44 39 37 35 37 34 41 36 33 36 40 42 43 40 35 32 37
7 7 7 9 9 9 7 4 4 4 5 5 3 3 4 3 1 2 3 12 27 21 13 11 14 12 17 19 14 25 26 20 20 20 22 31 39 34 31 35 43 41 37 32 25 25 29 30 31 35 45 39 40 43
5 6 7 8 5 5 6 1 6 7 5 3 2 3 2 3 4 6 5 5 14 14 14 15 17 21 25 13 11 18 27 41 35 31 31 22 30 27 43 38 32 23 11 8 12 19 22 23 24 26 31 34 45 46
5 8 5 11 15 24 10 11 16 5 6 8 5 6 4 5 8 2 3 7 9 9 19 19 22 21 24 6 22 15 29 42 35 24 34 28 34 28 17 20 23 18 17 15 14 13 21 26 25 22 32 36 42 49
10 7 2 25 15 11 4 6 6 9 8 13 11 8 5 3 3 4 8 13 5 13 18 20 26 34 15 23 21 26 33 34 35 27 19 16 29 29 22 22 21 23 23 16 14 13 13 26 26 33 31 35 39 41
10 9 9 15 14 8 6 5 10 7 5 5 4 5 6 8 3 10 7 7 4 9 14 21 31 24 14 23 36 43 36 26 18 39 45 46 42 35 26 23 24 23 23 22 19 16 17 28 36 34 35 33 38 40
9 15 8 8 3 7 3 2 3 10 4 11 11 10 10 15 20 23 8 13 7 7 14 28 39 12 18 24 28 23 16 21 48 34 41 50 42 35 26 24 22 24 28 26 28 31 28 27 32 33 37 38 38 45
17 14 8 7 8 2 6 8 10 9 2 5 7 10 13 11 18 27 23 17 9 14 18 24 26 5 13 16 22 26 36 45 28 25 27 30 27 30 26 24 22 24 26 29 29 30 26 20 32 42 49 53 59 59
16 10 12 7 10 22 11 8 9 5 6 9 9 14 12 9 6 13 17 10 19 13 14 26 18 17 16 16 28 37 39 41 32 31 31 28 32 35 31 21 14 15 20 23 28 31 25 27 39 52 58 40 54 48
16 12 10 9 6 5 6 9 6 8 4 3 3 4 4 4 5 13 19 17 13 16 44 33 21 36 25 26 32 31 46 52 43 37 34 30 32 34 20 18 14 9 19 34 38 36 36 39 42 55 59 57 64 71
Wind_Direction_850mb
313 313 312 310 308 306 305 306 308 310 315 318 319 321 324 327 321 328 253 234 344 277 273 268 270 284 296 298 336 319 352 352 43 70 135 215 166 220 139 190 174 162 147 193 99 117 266 236 151 150 169 143 147 153
310 310 312 309 308 307 306 304 306 309 310 313 312 315 316 318 313 303 296 278 276 267 259 274 269 257 258 259 274 289 279 297 350 72 259 121 188 93 157 215 7 121 173 181 165 209 227 193 163 149 157 154 154 153
305 306 306 306 305 301 300 301 303 305 306 309 308 308 305 310 309 290 292 328 318 301 295 272 271 288 260 243 241 226 260 89 56 18 301 261 214 128 148 223 142 8 151 132 85 279 150 135 135 148 162 162 164 178
299 298 299 301 302 300 292 295 298 299 301 306 306 307 304 302 304 290 277 281 276 294 275 288 284 280 231 229 243 233 243 261 297 317 281 247 227 186 195 188 143 190 127 158 243 95 144 160 162 165 169 167 163 163
296 295 294 295 296 296 296 287 289 289 293 303 306 302 303 300 303 293 278 273 227 244 294 295 304 288 246 241 232 237 233 246 259 241 259 236 264 107 10 73 155 180 171 156 216 181 179 192 177 178 169 167 168 165
293 289 286 285 287 288 292 285 281 279 284 291 298 292 294 294 304 309 292 185 191 231 263 293 304 294 259 227 254 218 222 223 223 199 229 251 251 204 121 183 251 209 217 231 196 184 202 189 179 183 177 172 174 178
290 288 286 279 277 279 283 285 275 274 275 282 282 286 288 286 282 257 227 163 191 205 240 292 284 277 306 236 223 202 200 210 218 220 225 259 297 232 148 172 190 101 128 216 217 186 151 168 176 179 177 172 173 171
294 291 284 277 269 267 273 278 269 269 270 273 280 285 288 283 273 270 239 201 270 266 248 270 271 295 298 194 190 200 193 211 216 217 239 208 248 217 224 213 200 163 153 155 160 171 178 179 172 169 174 173 174 173
291 284 278 271 265 256 259 259 262 259 266 274 280 289 287 263 264 298 197 201 219 225 250 260 269 269 348 330 195 186 198 140 225 196 205 217 222 221 206 180 191 195 175 175 176 173 165 170 168 171 177 178 180 174
291 285 275 263 258 248 245 242 252 251 258 266 280 262 252 233 306 247 167 178 181 220 235 255 273 274 337 340 18 135 99 231 203 222 201 221 238 239 224 197 222 226 210 185 158 152 163 167 173 176 184 191 195 189
296 279 269 253 245 236 233 229 236 228 227 230 227 238 261 310 171 210 201 185 191 228 218 230 229 244 266 306 259 38 78 275 267 253 171 230 231 218 226 223 217 218 225 207 208 201 200 197 180 178 186 193 199 199
301 284 256 235 231 222 221 214 212 211 203 198 257 282 282 231 214 217 224 170 182 220 217 204 224 212 231 226 157 149 10 252 244 347 257 233 239 210 218 222 229 231 226 213 205 194 188 189 187 186 189 196 207 209
312 279 236 222 212 211 208 201 207 207 208 238 262 263 209 230 243 198 194 216 194 215 213 207 199 183 206 197 166 174 211 239 297 248 261 242 203 222 220 228 225 224 205 197 187 186 188 188 189 192 193 198 205 209
334 354 209 186 193 195 184 188 183 180 179 220 238 269 203 229 247 75 330 309 290 315 319 255 205 211 174 152 173 187 218 105 247 211 249 320 355 277 228 229 224 203 188 183 182 180 179 181 188 193 198 198 202 196
340 170 178 174 151 161 169 166 173 176 179 229 239 246 240 242 339 295 335 325 328 340 334 315 255 162 231 150 191 137 153 239 226 243 245 332 336 328 294 260 224 205 187 177 174 172 176 182 190 187 192 196 196 193
69 103 121 136 153 154 154 159 165 170 224 232 238 270 279 299 322 266 357 348 351 326 336 239 289 117 206 188 144 204 205 219 230 220 270 320 329 332 307 248 221 199 177 173 173 178 180 177 174 179 180 188 188 194
48 112 126 136 145 158 159 157 164 202 238 246 250 268 271 278 286 321 353 338 335 320 265 98 247 176 296 223 215 204 247 305 334 325 303 328 325 332 340 199 187 175 170 168 172 169 165 164 169 173 174 175 179 191
113 128 139 155 152 154 165 163 215 236 243 242 247 268 277 285 286 311 332 340 323 307 215 285 313 26 29 26 359 5 336 333 320 305 307 280 305 327 18 167 166 168 163 161 160 157 158 163 171 173 171 172 175 168
95 133 143 150 153 129 188 221 231 255 247 257 261 274 280 289 255 276 309 301 293 281 318 261 253 204 124 174 210 11 312 305 310 306 310 198 353 299 188 159 152 157 155 156 157 161 167 174 179 173 173 188 177 174
118 135 156 158 173 275 248 231 222 254 261 267 286 287 318 254 300 306 310 300 313 309 226 251 232 191 202 176 134 348 291 330 345 339 18 194 177 156 148 154 152 152 152 154 156 157 159 164 169 170 169 169 180 182
102 136 154 184 262 266 264 276 250 246 280 267 281 288 237 297 305 301 294 303 271 236 250 255 269 235 203 167 216 259 314 321 333 337 325 135 169 139 158 151 147 149 149 152 155 159 166 174 175 184 178 154 182 186
360 200 237 236 257 257 264 245 248 287 280 265 289 214 222 255 280 284 181 195 235 243 246 303 193 210 167 65 323 312 313 327 337 354 45 133 168 157 154 154 147 144 147 151 154 161 174 182 189 186 173 153 166 174
344 223 254 240 254 244 261 249 248 244 250 280 313 299 225 243 264 197 241 193 273 311 246 148 77 61 39 6 347 331 325 317 345 91 116 124 134 136 137 140 140 141 145 154 165 177 185 187 180 176 169 161 165 172
302 264 251 240 218 261 268 247 240 267 273 263 247 271 280 254 307 22 272 10 337 2 107 43 59 42 24 18 40 45 15 322 312 155 111 141 137 136 138 141 149 156 166 168 166 165 174 176 179 183 184 186 191 184
276 250 246 258 226 233 222 232 236 244 247 248 282 309 309 284 15 227 102 359 44 51 51 33 112 26 360 16 82 55 87 93 116 124 112 140 139 138 138 145 147 152 159 159 169 186 185 185 188 197 201 200 198 191
270 268 217 286 301 225 299 225 211 226 229 230 306 350 26 25 358 46 44 46 84 51 19 9 12 4 355 341 154 103 138 120 132 143 108 130 156 157 150 148 150 147 151 146 152 164 169 181 187 184 188 189 186 185
271 270 289 297 290 296 319 324 319 350 346 10 337 339 28 25 38 31 158 134 120 35 1 4 360 347 348 222 172 159 162 165 159 130 141 134 165 162 166 177 166 150 148 143 143 169 194 189 190 193 183 182 182 188
254 291 283 315 318 328 304 299 352 15 333 341 339 7 53 43 288 355 71 83 83 7 345 337 345 345 344 176 173 147 143 156 167 175 198 204 189 181 146 134 127 126 132 140 153 182 195 178 171 162 161 165 170 173
255 265 256 288 282 279 260 211 146 246 272 329 11 59 310 337 308 340 349 8 4 349 336 341 346 355 113 164 162 146 143 133 136 150 150 148 154 153 153 138 132 144 163 157 143 125 123 169 168 156 155 155 150 157
290 325 244 224 258 282 111 56 332 345 333 38 31 24 13 40 7 1 284 327 337 304 351 357 350 49 113 148 157 159 129 144 159 154 149 157 156 153 154 152 164 180 179 173 166 147 140 150 159 155 162 161 159 153
297 310 288 268 236 280 25 358 357 337 298 40 15 11 10 3 354 50 37 36 21 353 344 359 6 137 132 131 140 151 139 156 147 149 147 145 149 155 157 159 172 181 184 185 182 169 158 153 167 167 164 155 152 140
286 287 342 323 340 352 351 5 336 1 51 38 17 356 20 44 24 35 40 27 3 331 339 333 321 207 148 126 134 133 145 149 159 160 148 137 156 171 166 162 153 141 158 173 182 180 168 158 158 164 163 177 168 153
303 283 286 287 301 304 301 341 3 345 18 0 331 58 96 108 110 39 32 17 28 38 12 349 175 177 157 135 129 136 149 148 142 146 142 151 170 168 140 110 114 132 142 137 140 150 153 152 152 153 153 152 148 148